1508497200.17,29869,16.56,74004.5,14.69,-27.45,-29.45,0,*45
1508497201.43,29870,16.63,74006.0,14.67,-26.45,-28.21,0,*41
1508497202.67,29871,16.56,74002.3,14.69,-25.71,-27.55,0,*46
1508497203.92,29872,16.56,74002.8,14.71,-25.97,-27.93,0,*4E
1508497205.2,29873,16.56,74004.5,14.75,-26.81,-28.91,0,*42
1508497206.46,29874,16.63,74004.8,14.75,-26.65,-28.43,0,*40
1508497207.71,29875,16.56,74004.5,14.75,-26.39,-28.09,0,*46
1508497208.94,29876,16.56,74004.5,14.77,-25.81,-27.77,0,*41
1508497210.17,29877,16.56,74006.3,14.77,-27.51,-29.51,0,*45
1508497211.38,29878,16.63,74006.5,14.77,-27.77,-29.83,0,*41
1508497212.64,29879,16.56,74000.8,14.77,-27.45,-29.35,0,*4C
1508497213.88,29880,16.56,74004.3,14.77,-26.65,-28.63,0,*4B
1508497215.13,29881,16.63,74006.5,14.79,-26.93,-28.97,0,*46
1508497216.34,29882,16.56,74000.8,14.77,-26.49,-28.37,0,*46
1508497217.59,29883,16.56,74004.3,14.79,-25.39,-27.39,0,*4C
1508497218.84,29884,16.63,74004.5,14.81,-25.29,-27.23,0,*46
1508497220.09,29885,16.56,74006.0,14.83,-25.35,-27.23,0,*48
1508497221.31,29886,16.56,74006.3,14.85,-25.91,-27.83,0,*49
1508497222.54,29887,16.56,74006.3,14.87,-26.45,-28.37,0,*40
1508497223.8,29888,16.56,74006.0,14.85,-26.81,-28.91,0,*49
1508497225.05,29889,16.63,74008.3,14.85,-27.39,-29.39,0,*49
1508497226.3,29890,16.56,74004.8,14.85,-26.71,-28.59,0,*4B
1508497227.56,29891,16.56,74006.3,14.85,-26.81,-28.91,0,*41
1508497228.79,29892,16.63,74008.3,14.85,-27.39,-29.57,0,*4B
1508497230.04,29893,16.63,74008.8,14.83,-27.35,-29.45,0,*43
1508497231.3,29894,16.56,74004.8,14.85,-26.81,-28.91,0,*44
1508497232.56,29895,16.63,74010.3,14.83,-26.33,-28.37,0,*46
1508497233.84,29896,16.63,74006.5,14.87,-27.45,-29.73,0,*40
1508497235.13,29897,16.56,74004.8,14.87,-28.21,-30.55,0,*40
1508497236.36,29898,16.63,74010.5,14.85,-28.37,-30.61,0,*4D
1508497237.56,29899,16.63,74008.5,14.85,-27.71,-30.11,0,*46
1508497238.76,29900,16.63,74006.5,14.85,-27.77,-30.11,0,*41
1508497240.01,29901,16.63,74004.8,14.85,-26.55,-29.01,0,*48
1508497241.22,29902,16.56,74000.3,14.85,-28.53,-31.01,0,*4A
1508497242.48,29903,16.56,74006.5,14.85,-28.21,-30.51,0,*4A
1508497243.68,29904,16.63,74008.3,14.85,-27.67,-30.27,0,*41
1508497244.94,29905,16.63,74008.5,14.83,-28.75,-31.17,0,*48
1508497246.22,29906,16.63,74008.3,14.83,-29.29,-31.51,0,*41
1508497247.45,29907,16.63,74008.0,14.81,-29.13,-31.45,0,*4E
1508497248.73,29908,16.63,74006.0,14.79,-29.13,-31.61,0,*40
1508497250.02,29909,16.56,74006.3,14.79,-28.59,-30.89,0,*49
1508497251.27,29910,16.56,74006.3,14.79,-27.23,-29.67,0,*4B
1508497252.52,29911,16.63,74004.8,14.79,-26.45,-28.75,0,*49
1508497253.77,29912,16.56,74004.8,14.79,-26.45,-28.91,0,*40
1508497254.99,29913,16.56,74002.3,14.81,-26.71,-29.07,0,*4F
1508497256.22,29914,16.56,74006.0,14.79,-27.71,-30.23,0,*40
1508497257.45,29915,16.63,74008.5,14.79,-27.93,-30.33,0,*4C
1508497258.71,29916,16.56,74006.8,14.79,-28.15,-30.51,0,*4A
1508497259.97,29917,16.56,74004.0,14.81,-27.61,-30.01,0,*45
1508497261.22,29918,16.63,74006.0,14.81,-26.93,-29.13,0,*4D
1508497262.45,29919,16.56,74000.8,14.81,-27.39,-29.67,0,*4E
1508497263.71,29920,16.63,74004.0,14.81,-27.23,-29.51,0,*4A
1508497264.93,29921,16.63,74004.3,14.81,-26.61,-28.79,0,*47
1508497266.16,29922,16.63,74008.3,14.81,-25.55,-27.71,0,*47
1508497267.4,29923,16.63,74006.8,14.85,-26.03,-28.21,0,*48
1508497268.65,29924,16.63,74004.8,14.83,-26.23,-28.25,0,*4F
1508497269.88,29925,16.63,74006.8,14.85,-26.07,-28.05,0,*4C
1508497271.14,29926,16.63,74004.3,14.87,-25.35,-27.61,0,*42
1508497272.34,29927,16.56,74002.0,14.89,-25.61,-27.77,0,*4B
1508497273.57,29928,16.63,74006.3,14.89,-25.23,-27.23,0,*43
1508497274.82,29929,16.63,74004.5,14.91,-25.19,-27.19,0,*4B
1508497276.04,29930,16.56,74002.3,14.93,-25.35,-27.39,0,*4D
1508497277.25,29931,16.63,74004.3,14.93,-25.61,-27.71,0,*41
1508497278.49,29932,16.56,74000.5,15.01,-25.45,-27.45,0,*49
1508497279.77,29933,16.56,74002.0,14.99,-25.29,-27.39,0,*49
1508497281.01,29934,16.63,74002.8,14.99,-25.23,-27.23,0,*4F
1508497282.22,29935,16.63,74004.3,15.01,-25.61,-27.67,0,*48
1508497283.46,29936,16.56,74000.0,15.03,-26.61,-28.69,0,*4B
1508497284.71,29937,16.56,74002.0,15.03,-26.23,-28.09,0,*4A
1508497285.94,29938,16.56,74002.8,15.03,-25.91,-27.71,0,*4F
1508497287.2,29939,16.63,74006.5,15.03,-25.35,-27.35,0,*40
1508497288.49,29940,16.63,74006.5,15.03,-25.55,-27.61,0,*49
1508497289.75,29941,16.63,74006.0,15.07,-26.97,-28.85,0,*44
1508497291.01,29942,16.63,74002.3,15.07,-25.49,-27.45,0,*44
1508497292.25,29943,16.56,74002.8,15.07,-25.39,-27.45,0,*42
1508497293.51,29944,16.63,74004.5,15.07,-24.97,-26.97,0,*4E
1508497294.76,29945,16.56,74000.3,15.11,-24.61,-26.71,0,*49
1508497296.01,29946,16.63,74006.3,15.11,-24.77,-26.71,0,*4D
1508497297.24,29947,16.63,74006.8,15.13,-25.55,-27.55,0,*48
1508497298.5,29948,16.63,74006.0,15.15,-26.33,-28.37,0,*49
1508497299.72,29949,16.63,74004.5,15.13,-26.61,-28.75,0,*4F
1508497300.92,29950,16.63,74006.5,15.13,-26.45,-28.53,0,*45
1508497302.15,29951,16.56,74002.0,15.13,-26.93,-28.97,0,*47
1508497303.37,29952,16.56,74002.3,15.13,-26.61,-28.75,0,*45
1508497304.65,29953,16.56,74000.3,15.15,-25.71,-27.83,0,*46
1508497305.88,29954,16.63,74004.3,15.15,-25.87,-27.89,0,*42
1508497307.15,29955,16.63,74004.5,15.17,-25.71,-27.67,0,*48
1508497308.42,29956,16.56,74002.3,15.17,-25.03,-27.19,0,*47
1508497309.68,29957,16.63,74004.8,15.17,-25.19,-27.35,0,*43
1508497310.96,29958,16.63,74004.5,15.21,-25.75,-27.83,0,*4E
1508497312.21,29959,16.63,74002.8,15.21,-25.81,-27.93,0,*45
1508497313.48,29960,16.63,74004.0,15.21,-25.97,-28.15,0,*49
1508497314.76,29961,16.63,74004.5,15.21,-25.97,-28.09,0,*45
1508497316.04,29962,16.63,74006.8,15.25,-26.55,-28.91,0,*4E
1508497317.31,29963,16.63,74006.8,15.25,-26.03,-28.21,0,*47
1508497318.56,29964,16.63,74010.0,15.23,-26.55,-28.79,0,*48
1508497319.78,29965,16.63,74004.5,15.25,-27.03,-29.23,0,*43
1508497321.03,29966,16.63,74004.8,15.25,-26.71,-28.97,0,*4A
1508497322.29,29967,16.63,74006.0,15.25,-26.39,-28.63,0,*4C
1508497323.57,29968,16.56,74002.8,15.25,-26.29,-28.59,0,*4B
1508497324.83,29969,16.63,74006.8,15.25,-26.61,-28.91,0,*42
1508497326.1,29970,16.63,74008.3,15.25,-26.71,-28.79,0,*4D
1508497327.35,29971,16.63,74004.8,15.25,-25.91,-28.09,0,*46
1508497328.58,29972,16.63,74008.0,15.23,-26.39,-28.59,0,*47
1508497329.79,29973,16.63,74006.0,15.27,-25.87,-27.89,0,*46
1508497331.04,29974,16.56,74004.0,15.29,-25.91,-28.09,0,*4F
1508497332.26,29975,16.63,74008.5,15.27,-26.03,-28.15,0,*45
1508497333.48,29976,16.63,74004.8,15.29,-25.61,-27.77,0,*44
1508497334.76,29977,16.63,74006.3,15.29,-26.77,-29.01,0,*4E
1508497336.05,29978,16.63,74008.0,15.29,-26.97,-29.35,0,*48
1508497337.27,29979,16.63,74008.3,15.29,-26.45,-28.53,0,*47
1508497338.55,29980,16.56,74004.8,15.33,-26.55,-28.91,0,*45
1508497339.8,29981,16.63,74006.3,15.31,-26.13,-28.43,0,*4B
1508497341.06,29982,16.63,74008.3,15.33,-27.07,-29.35,0,*4E
1508497342.31,29983,16.63,74010.0,15.31,-26.77,-29.13,0,*4F
1508497343.53,29984,16.63,74006.8,15.31,-26.93,-29.23,0,*41
1508497344.78,29985,16.56,74004.0,15.31,-26.55,-28.79,0,*44
1508497346.02,29986,16.63,74010.3,15.33,-26.45,-28.79,0,*44
1508497347.25,29987,16.63,74006.5,15.31,-27.45,-29.79,0,*47
1508497348.48,29988,16.63,74006.8,15.31,-26.39,-28.59,0,*41
1508497349.74,29989,16.63,74004.3,15.33,-26.03,-28.25,0,*40
1508497351.02,29990,16.63,74008.8,15.33,-26.29,-28.63,0,*42
1508497352.27,29991,16.56,74004.8,15.33,-26.55,-28.97,0,*43
1508497353.52,29992,16.63,74006.0,15.33,-27.23,-29.67,0,*4E
1508497354.73,29993,16.63,74004.5,15.35,-26.65,-29.07,0,*4C
1508497355.95,29994,16.63,74004.0,15.33,-27.13,-29.45,0,*4B
1508497357.18,29995,16.63,74008.5,15.35,-27.07,-29.39,0,*42
1508497358.39,29996,16.63,74004.5,15.35,-27.67,-30.23,0,*44
1508497359.62,29997,16.63,74006.3,15.35,-27.19,-29.57,0,*47
1508497360.84,29998,16.63,74004.5,15.33,-27.13,-29.61,0,*41
1508497362.13,29999,16.63,74006.8,15.33,-27.61,-30.01,0,*4B
1508497363.36,30000,16.63,74004.8,15.31,-27.45,-29.95,0,*4B
1508497364.56,30001,16.63,74006.8,15.31,-27.77,-30.27,0,*4A
1508497365.83,30002,16.63,74006.8,15.33,-26.93,-29.29,0,*46
1508497367.09,30003,16.63,74004.3,15.33,-27.45,-29.67,0,*47
1508497368.31,30004,16.63,74004.0,15.31,-26.71,-29.07,0,*42
1508497369.56,30005,16.63,74004.5,15.33,-27.39,-29.67,0,*4A
1508497370.82,30006,16.63,74004.3,15.33,-28.09,-30.33,0,*4C
1508497372.08,30007,16.63,74006.3,15.33,-27.29,-29.51,0,*4C
1508497373.33,30008,16.56,74002.0,15.31,-28.21,-30.39,0,*40
1508497374.57,30009,16.63,74006.0,15.31,-28.09,-30.33,0,*41
1508497375.8,30010,16.56,74000.3,15.33,-27.77,-29.95,0,*49
1508497377.03,30011,16.63,74004.3,15.31,-27.07,-29.35,0,*47
1508497378.26,30012,16.63,74006.0,15.31,-28.31,-30.55,0,*40
1508497379.51,30013,16.63,74004.3,15.31,-28.25,-30.39,0,*4E
1508497380.74,30014,16.63,74006.0,15.29,-27.67,-29.83,0,*40
1508497381.99,30015,16.63,74006.5,15.29,-27.13,-29.17,0,*4F
1508497383.24,30016,16.63,74004.5,15.31,-26.77,-28.75,0,*43
1508497384.49,30017,16.63,74006.0,15.31,-26.71,-28.75,0,*44
1508497385.75,30018,16.63,74004.5,15.33,-27.29,-29.35,0,*40
1508497386.95,30019,16.63,74004.3,15.31,-27.71,-29.79,0,*46
1508497388.2,30020,16.63,74004.0,15.33,-27.93,-30.01,0,*45
1508497389.48,30021,16.63,74004.5,15.33,-26.93,-28.91,0,*45
1508497390.71,30022,16.63,74000.3,15.31,-27.89,-30.01,0,*4E
1508497391.94,30023,16.63,74002.5,15.31,-28.43,-30.67,0,*46
1508497393.14,30024,16.63,74002.8,15.31,-27.71,-29.79,0,*48
1508497394.4,30025,16.63,74004.0,15.33,-28.79,-31.05,0,*4E
1508497395.65,30026,16.63,74004.3,15.33,-28.25,-30.11,0,*40
1508497396.9,30027,16.63,74004.0,15.31,-28.25,-30.39,0,*49
1508497398.11,30028,16.63,74006.5,15.31,-27.77,-29.83,0,*47
1508497399.31,30029,16.63,74008.0,15.31,-27.93,-30.11,0,*4F
1508497400.52,30030,16.63,74006.8,15.31,-27.77,-29.95,0,*49
1508497401.75,30031,16.63,74006.3,15.31,-27.45,-29.45,0,*44
1508497402.98,30032,16.63,74004.3,15.31,-27.93,-30.01,0,*44
1508497404.2,30033,16.63,74004.8,15.31,-27.39,-29.61,0,*4B
1508497405.4,30034,16.63,74006.0,15.31,-27.89,-30.11,0,*48
1508497406.65,30035,16.63,74004.3,15.31,-28.47,-30.51,0,*40
1508497407.88,30036,16.63,74008.8,15.29,-28.15,-30.23,0,*48
1508497409.14,30037,16.63,74006.0,15.29,-28.25,-30.33,0,*4B
1508497410.4,30038,16.63,74008.0,15.29,-28.25,-30.33,0,*44
1508497411.63,30039,16.63,74008.3,15.31,-27.93,-30.01,0,*4F
1508497412.89,30040,16.63,74006.3,15.27,-27.83,-29.89,0,*4F
1508497414.11,30041,16.63,74008.3,15.31,-27.13,-29.35,0,*47
1508497415.34,30042,16.63,74004.3,15.31,-26.61,-28.79,0,*49
1508497416.59,30043,16.63,74008.8,15.31,-26.93,-29.13,0,*48
1508497417.82,30044,16.56,74004.0,15.31,-27.29,-29.51,0,*49
1508497419.08,30045,16.63,74010.0,15.31,-27.45,-29.51,0,*42
1508497420.31,30046,16.63,74008.5,15.33,-27.71,-29.95,0,*4C
1508497421.51,30047,16.63,74008.5,15.31,-27.89,-29.83,0,*4F
1508497422.74,30048,16.63,74010.3,15.31,-27.45,-29.61,0,*4C
1508497423.99,30049,16.63,74008.5,15.33,-28.05,-30.11,0,*4B
1508497425.2,30050,16.63,74008.3,15.31,-27.29,-29.45,0,*49
1508497426.43,30051,16.63,74006.8,15.31,-27.29,-29.35,0,*4F
1508497427.7,30052,16.63,74008.5,15.31,-28.25,-30.17,0,*47
1508497428.95,30053,16.63,74006.5,15.31,-26.77,-28.79,0,*4E
1508497430.18,30054,16.63,74006.8,15.31,-26.61,-28.63,0,*45
1508497431.39,30055,16.63,74010.5,15.35,-27.67,-29.61,0,*44
1508497432.62,30056,16.63,74010.8,15.33,-27.71,-29.83,0,*4A
1508497433.87,30057,16.63,74010.3,15.33,-27.39,-29.45,0,*4D
1508497435.12,30058,16.63,74008.5,15.31,-26.71,-28.79,0,*43
1508497436.37,30059,16.63,74010.8,15.33,-26.39,-28.43,0,*45
1508497437.58,30060,16.63,74004.3,15.35,-26.65,-28.85,0,*4A
1508497438.84,30061,16.63,74008.5,15.35,-26.81,-29.29,0,*46
1508497440.08,30062,16.63,74008.0,15.37,-27.55,-29.73,0,*40
1508497441.33,30063,16.63,74010.5,15.37,-27.03,-29.29,0,*4D
1508497442.57,30064,16.63,74008.3,15.37,-27.35,-29.79,0,*4A
1508497443.82,30065,16.63,74010.0,15.37,-27.39,-29.79,0,*47
1508497445.06,30066,16.63,74010.3,15.35,-27.67,-29.89,0,*42
1508497446.3,30067,16.63,74008.0,15.37,-27.83,-30.23,0,*43
1508497447.53,30068,16.63,74014.0,15.35,-27.71,-30.05,0,*47
1508497448.79,30069,16.63,74008.3,15.35,-28.59,-30.95,0,*4A
1508497450.06,30070,16.63,74008.8,15.35,-28.25,-30.61,0,*42
1508497451.28,30071,16.63,74010.3,15.37,-27.03,-29.23,0,*44
1508497452.53,30072,16.63,74010.8,15.37,-27.39,-29.57,0,*4D
1508497453.78,30073,16.63,74008.5,15.35,-28.53,-30.77,0,*47
1508497455.03,30074,16.63,74010.5,15.37,-28.75,-31.01,0,*46
1508497456.26,30075,16.63,74008.5,15.35,-29.01,-31.33,0,*46
1508497457.51,30076,16.63,74004.0,15.35,-29.29,-31.57,0,*4D
1508497458.76,30077,16.63,74012.8,15.33,-29.23,-31.57,0,*40
1508497459.99,30078,16.63,74010.3,15.31,-28.79,-31.05,0,*44
1508497461.22,30079,16.63,74010.3,15.31,-28.59,-31.05,0,*47
1508497462.48,30080,16.63,74010.0,15.33,-28.79,-31.01,0,*45
1508497463.73,30081,16.63,74010.3,15.31,-28.21,-30.39,0,*41
1508497464.98,30082,16.63,74008.3,15.31,-30.51,-32.63,0,*41
1508497466.25,30083,16.63,74008.5,15.29,-30.55,-32.79,0,*46
1508497467.49,30084,16.63,74010.5,15.27,-30.83,-33.43,0,*4C
1508497468.77,30085,16.63,74010.3,15.25,-31.39,-33.89,0,*49
1508497470.0,30086,16.63,74006.3,15.23,-30.01,-32.23,0,*47
1508497471.28,30087,16.63,74010.8,15.21,-29.73,-31.85,0,*46
1508497472.53,30088,16.63,74010.3,15.21,-28.31,-30.39,0,*48
1508497473.79,30089,16.63,74006.5,15.21,-28.31,-30.51,0,*47
1508497475.05,30090,16.63,74008.5,15.21,-28.25,-30.23,0,*4F
1508497476.33,30091,16.63,74010.8,15.21,-28.47,-30.55,0,*4B
1508497477.56,30092,16.63,74008.0,15.23,-28.79,-31.01,0,*47
1508497478.8,30093,16.63,74010.0,15.23,-28.37,-30.51,0,*48
1508497480.06,30094,16.63,74010.8,15.23,-28.05,-30.01,0,*4B
1508497481.29,30095,16.63,74008.3,15.23,-28.47,-30.45,0,*4C
1508497482.55,30096,16.63,74004.8,15.23,-28.63,-30.51,0,*4C
1508497483.81,30097,16.63,74006.8,15.23,-28.59,-30.73,0,*44
1508497485.02,30098,16.63,74004.5,15.23,-29.61,-31.67,0,*45
1508497486.28,30099,16.63,74004.5,15.17,-29.89,-32.01,0,*46
1508497487.51,30100,16.63,74006.3,15.17,-30.11,-32.23,0,*4E
1508497488.74,30101,16.63,74008.3,15.17,-30.83,-33.15,0,*40
1508497489.97,30102,16.63,74004.0,15.15,-31.79,-33.83,0,*4A
1508497491.2,30103,16.63,74008.3,15.13,-30.11,-31.95,0,*47
1508497492.42,30104,16.63,74010.5,15.13,-29.57,-31.57,0,*44
1508497493.69,30105,16.63,74010.5,15.11,-29.57,-31.39,0,*4F
1508497494.92,30106,16.63,74006.5,15.09,-30.73,-32.69,0,*4D
1508497496.15,30107,16.63,74006.3,15.09,-31.23,-33.37,0,*42
1508497497.4,30108,16.63,74004.5,15.09,-30.39,-32.45,0,*43
1508497498.61,30109,16.63,74006.3,15.05,-29.57,-31.33,0,*4C
1508497499.81,30110,16.63,74006.5,15.05,-28.69,-30.45,0,*48
1508497501.07,30111,16.63,74006.3,15.07,-28.37,-30.39,0,*4B
1508497502.31,30112,16.63,74008.0,15.09,-28.47,-30.39,0,*41
1508497503.58,30113,16.63,74006.8,15.07,-29.01,-30.83,0,*4C
1508497504.84,30114,16.63,74006.3,15.07,-28.85,-30.73,0,*49
1508497506.1,30115,16.63,74006.8,15.05,-28.59,-30.51,0,*4B
1508497507.33,30116,16.63,74008.8,15.05,-28.59,-30.45,0,*4D
1508497508.55,30117,16.63,74004.8,15.05,-28.53,-30.33,0,*47
1508497509.75,30118,16.63,74008.3,15.05,-27.93,-29.79,0,*4D
1508497511.0,30119,16.63,74004.0,15.07,-27.55,-29.39,0,*40
1508497512.25,30120,16.63,74008.3,15.07,-27.51,-29.51,0,*40
1508497513.51,30121,16.63,74006.3,15.11,-26.87,-28.91,0,*41
1508497514.74,30122,16.63,74008.5,15.09,-27.61,-29.67,0,*4A
1508497515.97,30123,16.63,74008.5,15.11,-27.89,-29.95,0,*49
1508497517.19,30124,16.63,74008.8,15.11,-27.77,-29.79,0,*4D
1508497518.45,30125,16.63,74004.8,15.11,-28.05,-30.11,0,*40
1508497519.65,30126,16.63,74008.0,15.13,-27.71,-29.67,0,*44
1508497520.91,30127,16.63,74010.8,15.11,-27.45,-29.45,0,*40
1508497522.18,30128,16.63,74008.5,15.11,-27.23,-29.39,0,*44
1508497523.43,30129,16.63,74008.3,15.13,-27.39,-29.39,0,*4C
1508497524.64,30130,16.63,74010.8,15.13,-27.19,-29.07,0,*4B
1508497525.92,30131,16.63,74006.5,15.15,-27.19,-29.35,0,*4D
1508497527.14,30132,16.63,74010.5,15.15,-27.71,-29.79,0,*48
1508497528.37,30133,16.63,74008.8,15.13,-27.61,-29.57,0,*42
1508497529.57,30134,16.63,74008.5,15.13,-27.03,-29.23,0,*42
1508497530.83,30135,16.63,74010.0,15.17,-26.81,-28.85,0,*41
1508497532.12,30136,16.63,74008.5,15.17,-26.97,-29.01,0,*48
1508497533.38,30137,16.63,74008.5,15.21,-26.77,-28.85,0,*4F
1508497534.67,30138,16.63,74004.5,15.17,-25.97,-28.05,0,*40
1508497535.96,30139,16.63,74008.0,15.21,-25.97,-28.21,0,*42
1508497537.21,30140,16.63,74010.3,15.21,-26.23,-28.25,0,*44
1508497538.48,30141,16.63,74006.8,15.23,-26.17,-28.25,0,*40
1508497539.74,30142,16.63,74008.8,15.25,-26.07,-28.25,0,*44
1508497540.94,30143,16.63,74008.8,15.27,-25.65,-27.71,0,*4E
1508497542.19,30144,16.63,74008.8,15.29,-25.91,-27.99,0,*4A
1508497543.42,30145,16.63,74006.3,15.29,-27.51,-29.57,0,*49
1508497544.67,30146,16.63,74008.0,15.29,-27.07,-29.29,0,*40
1508497545.93,30147,16.63,74008.0,15.29,-26.17,-28.31,0,*49
1508497547.19,30148,16.63,74010.0,15.29,-26.49,-28.63,0,*4A
1508497548.44,30149,16.63,74010.5,15.29,-25.65,-27.83,0,*47
1508497549.66,30150,16.63,74008.8,15.31,-25.91,-28.09,0,*40
1508497550.94,30151,16.63,74010.0,15.33,-26.55,-28.91,0,*49
1508497552.14,30152,16.63,74010.8,15.31,-27.55,-29.83,0,*4B
1508497553.37,30153,16.63,74008.0,15.31,-26.77,-28.97,0,*4F
1508497554.62,30154,16.63,74006.3,15.33,-27.39,-29.79,0,*40
1508497555.82,30155,16.63,74004.8,15.31,-27.29,-29.61,0,*4B
1508497557.05,30156,16.63,74008.0,15.31,-27.03,-29.29,0,*4C
1508497558.28,30157,16.63,74010.0,15.31,-28.05,-30.33,0,*47
1508497559.52,30158,16.63,74008.5,15.31,-28.43,-30.67,0,*4B
1508497560.79,30159,16.63,74006.8,15.29,-28.47,-30.95,0,*4A
1508497562.0,30160,16.63,74010.0,15.27,-28.69,-30.83,0,*45
1508497563.26,30161,16.63,74010.5,15.27,-28.21,-30.51,0,*47
1508497564.47,30162,16.63,74008.0,15.27,-27.51,-29.61,0,*47
1508497565.7,30163,16.63,74010.3,15.27,-27.13,-29.35,0,*41
1508497566.91,30164,16.63,74012.0,15.27,-27.55,-29.61,0,*45
1508497568.16,30165,16.63,74010.0,15.27,-28.05,-30.39,0,*4B
1508497569.43,30166,16.63,74012.0,15.29,-28.53,-30.61,0,*48
1508497570.63,30167,16.63,74012.3,15.27,-28.15,-30.27,0,*47
1508497571.89,30168,16.63,74010.3,15.27,-28.21,-30.51,0,*4E
1508497573.12,30169,16.63,74018.8,15.25,-27.93,-30.11,0,*4F
1508497574.35,30170,16.63,74014.8,15.25,-27.89,-30.27,0,*49
1508497575.61,30171,16.63,74014.3,15.25,-28.05,-30.33,0,*46
1508497576.88,30172,16.63,74012.0,15.23,-28.63,-31.23,0,*43
1508497578.08,30173,16.63,74012.8,15.23,-31.05,-33.83,0,*42
1508497579.3,30174,16.63,74014.5,15.23,-30.45,-32.63,0,*4F
1508497580.55,30175,16.63,74014.3,15.17,-31.51,-34.13,0,*4C
1508497581.78,30176,16.63,74014.0,15.15,-34.41,-36.97,0,*47
1508497583.07,30177,16.63,74014.8,15.11,-33.73,-36.13,0,*48
1508497584.33,30178,16.63,74008.5,15.09,-33.43,-35.95,0,*40
1508497585.57,30179,16.63,74012.3,15.03,-33.67,-35.89,0,*40
1508497586.83,30180,16.63,74010.3,14.99,-31.45,-33.77,0,*41
1508497588.06,30181,16.63,74010.0,14.95,-31.67,-33.83,0,*47
1508497589.26,30182,16.63,74008.0,14.93,-31.01,-33.15,0,*4D
1508497590.49,30183,16.63,74008.3,14.93,-30.11,-32.07,0,*4E
1508497591.73,30184,16.63,74012.0,14.93,-29.45,-31.51,0,*40
1508497592.94,30185,16.63,74008.0,14.93,-29.23,-31.17,0,*43
1508497594.17,30186,16.63,74014.3,14.93,-28.59,-30.45,0,*4A
1508497595.43,30187,16.63,74010.0,14.93,-28.75,-30.61,0,*43
1508497596.69,30188,16.63,74006.8,14.95,-27.71,-29.73,0,*4A
1508497597.97,30189,16.63,74006.8,14.95,-29.01,-30.95,0,*42
1508497599.23,30190,16.63,74006.0,14.95,-29.83,-31.85,0,*40
1508497600.47,30191,16.63,74008.5,14.95,-29.23,-31.17,0,*40
1508497601.74,30192,16.63,74008.0,14.95,-29.35,-31.29,0,*49
1508497602.99,30193,16.63,74010.5,14.95,-29.73,-31.79,0,*4F
1508497604.27,30194,16.63,74006.8,14.91,-30.77,-33.09,0,*45
1508497605.55,30195,16.63,74010.5,14.91,-29.73,-31.73,0,*47
1508497606.82,30196,16.63,74008.3,14.91,-29.29,-31.39,0,*45
1508497608.09,30197,16.63,74008.3,14.89,-29.17,-31.23,0,*4B
1508497609.34,30198,16.63,74012.5,14.87,-30.23,-32.29,0,*4C
1508497610.57,30199,16.63,74012.3,14.87,-29.83,-32.13,0,*46
1508497611.86,30200,16.63,74012.5,14.87,-29.51,-31.57,0,*49
1508497613.08,30201,16.63,74008.0,14.85,-28.69,-30.95,0,*4F
1508497614.34,30202,16.63,74010.8,14.87,-28.97,-30.95,0,*4F
1508497615.6,30203,16.63,74014.0,14.87,-28.37,-30.39,0,*42
1508497616.81,30204,16.63,74010.5,14.89,-28.15,-30.33,0,*41
1508497618.08,30205,16.63,74012.0,14.87,-28.53,-30.73,0,*48
1508497619.34,30206,16.63,74014.0,14.87,-28.53,-30.95,0,*43
1508497620.54,30207,16.63,74012.3,14.89,-28.31,-30.23,0,*45
1508497621.8,30208,16.63,74012.3,14.89,-29.17,-31.23,0,*4E
1508497623.03,30209,16.63,74012.0,14.89,-29.79,-31.61,0,*41
1508497624.27,30210,16.63,74010.0,14.87,-30.23,-32.39,0,*4E
1508497625.55,30211,16.63,74010.0,14.87,-29.73,-31.85,0,*46
1508497626.8,30212,16.63,74008.5,14.85,-29.29,-31.11,0,*45
1508497628.08,30213,16.63,74006.5,14.87,-28.47,-30.39,0,*44
1508497629.31,30214,16.63,74006.3,14.83,-28.37,-30.33,0,*4A
1508497630.54,30215,16.63,74008.8,14.85,-29.29,-31.33,0,*42
1508497631.77,30216,16.63,74008.3,14.87,-29.07,-31.29,0,*44
1508497633.03,30217,16.63,74008.8,14.83,-30.17,-32.35,0,*46
1508497634.28,30218,16.63,74006.3,14.83,-29.73,-32.01,0,*44
1508497635.56,30219,16.63,74010.8,14.83,-29.29,-31.39,0,*42
1508497636.79,30220,16.63,74012.5,14.81,-28.79,-31.17,0,*42
1508497638.05,30221,16.63,74008.8,14.81,-29.17,-31.39,0,*46
1508497639.28,30222,16.63,74012.0,14.81,-29.67,-31.91,0,*40
1508497640.51,30223,16.63,74010.8,14.81,-29.61,-31.91,0,*47
1508497641.77,30224,16.63,74010.5,14.79,-29.67,-32.07,0,*4D
1508497643.01,30225,16.63,74014.0,14.77,-30.73,-32.91,0,*40
1508497644.28,30226,16.63,74010.3,14.75,-29.73,-31.73,0,*46
1508497645.51,30227,16.63,74010.5,14.75,-30.45,-32.51,0,*49
1508497646.74,30228,16.63,74008.8,14.77,-28.85,-31.11,0,*46
1508497648.03,30229,16.63,74012.0,14.75,-28.43,-30.61,0,*49
1508497649.29,30230,16.63,74014.8,14.71,-27.29,-29.51,0,*4D
1508497650.54,30231,16.63,74012.0,14.77,-27.35,-29.51,0,*47
1508497651.75,30232,16.63,74008.3,14.77,-27.51,-29.67,0,*43
1508497652.99,30233,16.63,74008.3,14.77,-27.29,-29.51,0,*48
1508497654.22,30234,16.63,74008.3,14.81,-29.51,-31.79,0,*44
1508497655.45,30235,16.63,74014.3,14.79,-31.29,-33.55,0,*48
1508497656.69,30236,16.63,74014.5,14.75,-30.51,-32.57,0,*4A
1508497657.94,30237,16.63,74012.3,14.75,-27.99,-30.23,0,*48
1508497659.2,30238,16.63,74010.5,14.77,-27.45,-29.73,0,*49
1508497660.42,30239,16.63,74012.0,14.77,-27.13,-29.17,0,*49
1508497661.65,30240,16.63,74010.8,14.77,-27.13,-29.17,0,*47
1508497662.92,30241,16.63,74012.5,14.79,-26.71,-28.91,0,*42
1508497664.2,30242,16.63,74014.0,14.79,-26.55,-28.59,0,*43
1508497665.48,30243,16.63,74010.0,14.79,-26.71,-28.91,0,*40
1508497666.7,30244,16.63,74012.3,14.81,-26.93,-29.07,0,*42
1508497667.93,30245,16.63,74014.8,14.81,-26.45,-28.59,0,*42
1508497669.2,30246,16.63,74008.5,14.83,-26.71,-28.75,0,*4A
1508497670.43,30247,16.63,74012.8,14.83,-26.49,-28.53,0,*44
1508497671.7,30248,16.63,74010.8,14.87,-27.29,-29.35,0,*49
1508497672.95,30249,16.63,74012.3,14.89,-28.43,-30.51,0,*4F
1508497674.24,30250,16.63,74008.8,14.87,-29.89,-32.19,0,*40
1508497675.51,30251,16.63,74010.3,14.83,-31.51,-33.89,0,*41
1508497676.74,30252,16.63,74008.5,14.81,-32.13,-34.31,0,*41
1508497677.97,30253,16.63,74010.5,14.77,-32.69,-35.23,0,*46
1508497679.2,30254,16.63,74010.0,14.69,-33.77,-36.07,0,*45
1508497680.46,30255,16.63,74008.8,14.71,-32.63,-35.01,0,*4C
1508497681.69,30256,16.63,74012.5,14.65,-32.85,-35.29,0,*48
1508497682.9,30257,16.63,74012.0,14.61,-33.95,-36.55,0,*45
1508497684.16,30258,16.63,74012.8,14.57,-34.31,-36.61,0,*41
1508497685.42,30259,16.63,74008.5,14.57,-32.79,-35.23,0,*4F
1508497686.63,30260,16.63,74010.3,14.53,-33.67,-36.07,0,*4A
1508497687.87,30261,16.63,74012.8,14.47,-32.19,-34.35,0,*45
1508497689.13,30262,16.63,74012.5,14.45,-31.45,-33.77,0,*4F
1508497690.34,30263,16.63,74010.5,14.43,-32.69,-35.13,0,*41
1508497691.57,30264,16.63,74014.3,14.41,-34.25,-36.73,0,*4F
1508497692.79,30265,16.63,74014.3,14.39,-32.39,-34.83,0,*47
1508497694.05,30266,16.63,74010.3,14.37,-34.07,-36.37,0,*4C
1508497695.31,30267,16.63,74014.3,14.33,-33.61,-36.01,0,*4B
1508497696.57,30268,16.63,74010.5,14.31,-34.19,-36.79,0,*41